SHENZHOU-16 (SZ-16)

Last updated on Tue Oct 31 2023 00:02:07 GMT+0000 (Coordinated Universal Time)

1 56761U 23077A 23303.74744120 .00035026 00000+0 40276-3 0 9991 2 56761 41.4708 50.5661 0004567 43.3973 82.3983 15.61286248 24029
UTC large
Height (km)
Speed (km/s)
/
Latitude / Longitude
Inclination (degrees)
Orbital Period (minutes)
Azimuth
Elevation
Range (km)
Doppler Factor

Next 0 passes for location: London (51.5072 / 0.1276)

Sorry there are no passes over London.